Flag for Australia Weather past 2 weeks in Launceston, Tasmania, Australia

Now
50 °F

Partly sunny.


Feels Like: 47 °F
Forecast: 46 / 60 °F
Wind: 8 mph from South

Location: Launceston Airport

Current Time: Aug 22, 2014 at 10:47:35 AM

Latest Report: Aug 22, 2014 at 10:00 AM


Visibility: N/A

Pressure: 30.51 "Hg

Humidity: 82%

Dew point: 45 °F

Location of LauncestonLocation

Historic Weather in Launceston — Graph

°F

Launceston temperature yesterday

Maximum temperature yesterday: 59 °F (at 2:30 PM)
Minimum temperature yesterday: 34 °F (at 3:30 AM)
Average temperature yesterday: 44 °F

Past Weeks' High & Low Weather Summary

 TemperatureHumidityPressure
High59 °F (Aug 21, 2:30 PM)100% (Aug 8, 9:30 PM)30.57 "Hg (Aug 8, 9:30 PM)
Low27 °F (Aug 12, 7:00 AM)41% (Aug 17, 3:00 PM)29.89 "Hg (Aug 10, 12:30 AM)
Average43 °F78%30.29 "Hg
* Reported Aug 7 9:00 AM — Aug 22 9:30 AM, Launceston, Weather by CustomWeather, © 2014

Note: Actual official high and low records may vary slightly from our data, if they occured in-between our weather recording intervals... More about our weather records

Advertising

Launceston weather history for previous 24 hours

 ConditionsComfort  
Time TempWeatherWind HumidityBarometerVisibility
9:30 AM
Aug 22
48 °FOvercast.8 mph82%30.51 "HgN/A
9:00 AM45 °FScattered clouds.6 mph93%30.54 "HgN/A
8:30 AM41 °FScattered clouds.5 mph100%30.54 "HgN/A
8:00 AM41 °FCloudy.6 mph93%30.54 "HgN/A
7:30 AM39 °FCloudy.7 mph93%30.51 "HgN/A
7:00 AM37 °FMore clouds than sun.6 mph100%30.51 "HgN/A
6:30 AM37 °FBroken clouds.6 mph93%30.51 "HgN/A
6:00 AM37 °FMostly cloudy.6 mph93%30.51 "HgN/A
5:30 AM37 °FPassing clouds.7 mph93%30.51 "HgN/A
5:00 AM36 °FPassing clouds.6 mph93%30.51 "HgN/A
4:30 AM37 °FPassing clouds.6 mph93%30.51 "HgN/A
4:00 AM36 °FPassing clouds.6 mph93%30.51 "HgN/A
3:30 AM36 °FClear.6 mph100%30.48 "HgN/A
3:00 AM37 °FClear.5 mph93%30.51 "HgN/A
2:30 AM39 °FPassing clouds.6 mph93%30.51 "HgN/A
2:00 AM39 °FPassing clouds.6 mph100%30.51 "HgN/A
1:30 AM37 °FPassing clouds.No wind93%30.51 "HgN/A
1:00 AM39 °FClear.3 mph87%30.51 "HgN/A
12:30 AM41 °FClear.No wind93%30.51 "HgN/A
12:00 AM39 °FClear.No wind87%30.51 "HgN/A
11:30 PM
Aug 21
39 °FClear.7 mph87%30.51 "HgN/A
11:00 PM41 °FClear.1 mph87%30.51 "HgN/A
10:30 PM41 °FClear.No wind81%30.51 "HgN/A
10:00 PM43 °FClear.2 mph81%30.51 "HgN/A
9:30 PM45 °FClear.No wind81%30.51 "HgN/A
9:00 PM45 °FClear.No wind87%30.51 "HgN/A
8:30 PM46 °FClear.No wind82%30.51 "HgN/A
8:00 PM46 °FClear.1 mph76%30.48 "HgN/A
7:30 PM45 °FClear.No wind81%30.48 "HgN/A
7:00 PM45 °FPassing clouds.1 mph81%30.48 "HgN/A
6:30 PM48 °FPassing clouds.No wind71%30.48 "HgN/A
6:00 PM50 °FClear.3 mph67%30.45 "HgN/A
5:30 PM50 °FPassing clouds.1 mph67%30.45 "HgN/A
5:00 PM52 °FClear.5 mph67%30.45 "HgN/A
4:30 PM54 °FScattered clouds.6 mph63%30.45 "HgN/A
4:00 PM55 °FScattered clouds.3 mph55%30.45 "HgN/A
3:30 PM57 °FScattered clouds.2 mph51%30.45 "HgN/A
3:00 PM57 °FSunny.1 mph51%30.45 "HgN/A
2:30 PM59 °FSunny.No wind51%30.45 "HgN/A
2:00 PM57 °FScattered clouds.2 mph55%30.45 "HgN/A
1:30 PM57 °FSunny.2 mph51%30.45 "HgN/A
1:00 PM55 °FSunny.6 mph55%30.45 "HgN/A
12:30 PM54 °FSunny.5 mph58%30.45 "HgN/A
12:00 PM54 °FSunny.7 mph63%30.48 "HgN/A
11:30 AM52 °FSunny.6 mph72%30.48 "HgN/A
11:00 AM48 °FPartly sunny.6 mph76%30.51 "HgN/A
10:30 AM46 °FScattered clouds.5 mph82%30.51 "HgN/A
Weather by CustomWeather, © 2014

See weather overviewHow to use our weather pages